[[{"header":{"parameterUnit":"m.s-1","parameterCategory":1,"la1":30.2991,"la2":30.254,"lo1":-89.0895,"lo2":-89.0444,"dy":0.0017,"dx":0.0017,"nx":28,"ny":28,"refTime":"2025-12-19T03:00:00:Z","depth":0,"parameterNumber":2,"parameterNumberName":"U-component_of_WINDS"},"data":[0,0,0,0,0,0,0,0,0,0,0,0,0,0,0,0,0,0,0,0,0,0,0,0,0,0,0,0,0,0,0,0,0,0,0,0,0,0,0,0,0,0,0,0,0,0,0,0,0,0,0,0,0,0,0,0,0,0,-3.5259,-3.526,0,-3.5383,-3.5385,-3.5386,-3.5419,-3.5418,-3.5417,-3.5417,-3.5542,-3.5546,-3.555,0,0,0,0,0,0,0,0,0,0,0,0,0,-3.5048,-3.5051,-3.5259,-3.526,-3.5262,-3.5383,-3.5385,-3.5386,-3.5419,-3.5418,-3.5417,-3.5416,-3.5541,-3.5545,-3.555,0,0,0,0,0,0,0,0,0,0,0,0,0,-3.5152,-3.5053,-3.5258,-3.5293,-3.5297,-3.5383,-3.5385,-3.5387,-3.5419,-3.5418,-3.5417,-3.5416,-3.5539,-3.5545,-3.5551,-3.561,0,0,-3.5569,-3.5572,0,0,0,0,0,0,0,0,-3.5146,-3.516,-3.5286,-3.529,-3.5295,-3.5384,-3.5356,-3.5462,-3.542,-3.5373,-3.5417,-3.5415,-3.549,-3.55,-3.5526,-3.5616,-3.5622,-3.557,-3.5573,-3.5576,-3.5578,0,0,0,0,0,0,0,-3.5139,-3.5155,-3.5308,-3.5288,-3.5294,-3.5301,-3.5315,-3.5376,-3.5436,-3.5377,-3.5379,-3.5394,-3.5493,-3.552,-3.5529,-3.5623,-3.557,-3.5575,-3.5579,-3.5581,-3.5769,-3.577,0,0,0,0,0,0,-3.5126,-3.5149,-3.5304,-3.5312,-3.5217,-3.5306,-3.5321,-3.5357,-3.5436,-3.5447,-3.5395,-3.5395,-3.551,-3.5522,-3.5534,-3.5608,-3.5576,-3.5582,-3.5585,-3.5768,-3.5769,-3.5771,0,0,0,0,0,0,-3.5121,-3.514,-3.5299,-3.5231,-3.5252,-3.5311,-3.5351,-3.536,-3.5387,-3.5449,-3.546,-3.5412,-3.551,-3.5525,-3.5591,-3.5613,-3.5584,-3.559,-3.5766,-3.5768,-3.577,-3.5757,0,0,0,0,0,0,-3.5115,-3.5138,-3.5161,-3.5231,-3.5255,-3.5355,-3.5352,-3.5363,-3.5398,-3.54,-3.5468,-3.5478,-3.551,-3.5582,-3.5597,-3.5621,-3.5595,-3.5764,-3.5767,-3.577,-3.5756,-3.5759,-3.5761,0,0,0,0,0,-3.5108,-3.5152,-3.5162,-3.5181,-3.5286,-3.5356,-3.5369,-3.5406,-3.54,-3.5423,-3.5463,-3.5476,-3.5609,-3.5589,-3.5606,-3.5631,-3.5763,-3.5766,-3.5769,-3.5755,-3.5758,-3.5761,0,0,0,0,0,0,-3.5082,-3.5162,-3.5174,-3.5242,-3.5292,-3.5361,-3.5392,-3.5408,-3.546,-3.5459,-3.5502,-3.5517,-3.558,-3.5613,-3.5589,-3.5693,-3.5686,-3.5693,-3.5669,-3.5673,-3.5675,-3.5665,-3.56,0,0,0,0,0,-3.5084,-3.5135,-3.5202,-3.5256,-3.5281,-3.5332,-3.5364,-3.5388,-3.5441,-3.5462,-3.5506,-3.5557,-3.561,-3.5643,-3.5696,-3.5762,-3.5777,-3.5788,-3.5791,-3.5792,-3.5797,-3.5834,-3.584,-3.5781,-3.5781,-3.5781,0,0,-3.5089,-3.514,-3.5169,-3.5252,-3.5294,-3.5344,-3.5349,-3.5403,-3.5441,-3.547,-3.5534,-3.5569,-3.5628,-3.5695,-3.5726,-3.5724,-3.5817,-3.5796,-3.5797,-3.5801,-3.5838,-3.5843,-3.5848,-3.5783,-3.5783,-3.5782,0,0,-3.5124,-3.5168,-3.5218,-3.5259,-3.5322,-3.5357,-3.5369,-3.5436,-3.546,-3.5527,-3.5549,-3.5595,-3.5686,-3.5727,-3.5759,-3.5812,-3.5825,-3.5828,-3.584,-3.5875,-3.588,-3.5884,-3.5902,-3.5908,-3.5833,-3.5833,-3.5833,0,-3.5122,-3.52,-3.5241,-3.5293,-3.5329,-3.5359,-3.5409,-3.5448,-3.5524,-3.5548,-3.5545,-3.566,-3.5702,-3.5778,-3.5791,-3.5817,-3.5831,-3.5819,-3.5876,-3.5881,-3.5886,-3.5903,-3.5909,-3.5833,-3.5833,-3.5833,-3.5833,0,-3.5194,-3.5248,-3.5281,-3.5355,-3.5395,-3.5446,-3.5493,-3.5529,-3.555,-3.5584,-3.5652,-3.5704,-3.5767,-3.5787,-3.5808,-3.5867,-3.5863,-3.5868,-3.5861,-3.589,-3.5907,-3.5914,-3.5832,-3.5832,-3.5832,-3.5832,0,0,-3.5214,-3.5311,-3.5322,-3.5356,-3.5429,-3.5471,-3.5524,-3.5586,-3.5615,-3.5668,-3.5712,-3.5789,-3.5795,-3.5832,-3.5858,-3.589,-3.5927,-3.5891,-3.5893,-3.5894,-3.5993,-3.5988,-3.5995,-3.5937,-3.5939,-3.594,-3.5988,0,-3.5256,-3.5352,-3.539,-3.5467,-3.5517,-3.5548,-3.5594,-3.5643,-3.5677,-3.5724,-3.5762,-3.5816,-3.5819,-3.5842,-3.5875,-3.5915,-3.5947,-3.5913,-3.5978,-3.598,-3.596,-3.6004,-3.5998,-3.6041,-3.5995,-3.5996,-3.5997,0,-3.5318,-3.5372,-3.5454,-3.5521,-3.5543,-3.5584,-3.5645,-3.569,-3.5747,-3.577,-3.5812,-3.5837,-3.5893,-3.5885,-3.5962,-3.5938,-3.5968,-3.5992,-3.5994,-3.6,-3.5988,-3.6009,-3.6055,-3.6061,-3.6008,-3.6007,-3.6006,0,-3.5322,-3.5415,-3.5476,-3.5505,-3.5585,-3.5613,-3.5647,-3.5703,-3.5739,-3.5792,-3.5815,-3.5875,-3.5906,-3.5952,-3.5992,-3.5982,-3.6065,-3.606,-3.6085,-3.6084,-3.6099,-3.6097,-3.6148,-3.6121,-3.6121,-3.6121,-3.6121,0,-3.5364,-3.5413,-3.5479,-3.5516,-3.5572,-3.5616,-3.567,-3.5707,-3.5757,-3.5801,-3.5832,-3.5873,-3.5925,-3.5973,-3.6005,-3.6064,-3.6078,-3.6097,-3.6105,-3.6094,-3.6091,-3.6112,-3.6109,-3.6123,-3.6122,-3.6122,-3.6122,0,-3.5377,-3.5424,-3.5492,-3.5563,-3.5582,-3.5619,-3.568,-3.5717,-3.5754,-3.581,-3.5826,-3.5883,-3.5941,-3.5987,-3.6062,-3.6084,-3.6146,-3.6155,-3.6126,-3.613,-3.6151,-3.6148,-3.6216,-3.6227,-3.6194,-3.6194,-3.6194,0,-3.54,-3.5438,-3.5513,-3.5546,-3.558,-3.5632,-3.5669,-3.5715,-3.5752,-3.582,-3.5849,-3.591,-3.596,-3.6052,-3.6099,-3.6158,-3.6167,-3.6188,-3.6176,-3.6163,-3.6166,-3.6162,-3.6166,-3.6188,-3.6188,-3.6188,-3.6188,0,-3.5435,-3.5456,-3.5508,-3.5568,-3.5611,-3.5661,-3.5711,-3.5736,-3.5791,-3.5831,-3.5891,-3.593,-3.6008,-3.6067,-3.6131,-3.6166,-3.6186,-3.6192,-3.62,-3.6188,-3.6169,-3.6178,-3.6128,-3.6189,-3.6189,-3.6189,-3.6189,-3.6189,-3.5452,-3.5487,-3.5546,-3.5603,-3.5646,-3.5692,-3.5731,-3.5773,-3.5824,-3.5891,-3.5915,-3.5977,-3.6034,-3.6121,-3.6157,-3.6206,-3.6207,-3.6219,-3.6222,-3.6224,-3.6222,-3.6163,-3.6218,-3.6218,-3.6218,-3.6218,-3.6218,0,-3.5487,-3.5527,-3.5579,-3.5648,-3.5693,-3.571,-3.5767,-3.5803,-3.5857,-3.5908,-3.5958,-3.6027,-3.6086,-3.6139,-3.62,-3.6228,-3.6239,-3.6243,-3.624,-3.6248,-3.6219,-3.6204,-3.6233,-3.6233,-3.6233,-3.6233,-3.6233,-3.6233,-3.551,-3.5571,-3.5599,-3.5682,-3.5721,-3.5782,-3.5813,-3.5856,-3.5897,-3.5973,-3.6022,-3.6057,-3.611,-3.6175,-3.6229,-3.6243,-3.6263,-3.6264,-3.6281,-3.6252,-3.625,-3.6248,-3.6234,-3.6269,-3.6269,-3.6305,-3.6306,-3.6306]},{"header":{"parameterUnit":"m.s-1","parameterCategory":1,"la1":30.2991,"la2":30.254,"lo1":-89.0895,"lo2":-89.0444,"dy":0.0017,"dx":0.0017,"nx":28,"ny":28,"refTime":"2025-12-19T03:00:00:Z","depth":0,"parameterNumber":3,"parameterNumberName":"V-component_of_WINDS"},"data":[0,0,0,0,0,0,0,0,0,0,0,0,0,0,0,0,0,0,0,0,0,0,0,0,0,0,0,0,0,0,0,0,0,0,0,0,0,0,0,0,0,0,0,0,0,0,0,0,0,0,0,0,0,0,0,0,0,0,1.9806,1.9808,0,1.9929,1.993,1.9932,1.991,1.9908,1.9906,1.9904,2.0031,2.0037,2.0042,0,0,0,0,0,0,0,0,0,0,0,0,0,1.9558,1.9563,1.9806,1.9808,1.9809,1.9929,1.993,1.9932,1.991,1.9908,1.9905,1.9903,2.0029,2.0036,2.0042,0,0,0,0,0,0,0,0,0,0,0,0,0,1.9672,1.9564,1.9806,1.9813,1.9815,1.9928,1.993,1.9932,1.9911,1.9908,1.9904,1.9901,2.0027,2.0035,2.0043,2.0158,0,0,2.0068,2.0072,0,0,0,0,0,0,0,0,1.9666,1.9681,1.981,1.9812,1.9815,1.9901,1.989,2.0008,1.9912,1.9874,1.9904,1.99,1.9991,2.0002,2.0032,2.0164,2.017,2.0069,2.0074,2.0077,2.008,0,0,0,0,0,0,0,1.9658,1.9676,1.9855,1.9812,1.9815,1.9811,1.9824,1.9912,1.9949,1.9877,1.9876,1.9891,1.9991,2.0024,2.0035,2.0172,2.0069,2.0076,2.0081,2.0084,2.041,2.0414,0,0,0,0,0,0,1.9647,1.9669,1.9851,1.9858,1.9731,1.9819,1.9833,1.9876,1.9948,1.9956,1.9893,1.9889,2.0012,2.0025,2.0039,2.0182,2.0077,2.0085,2.0089,2.0407,2.0411,2.0415,0,0,0,0,0,0,1.9642,1.9664,1.9846,1.9764,1.9787,1.9826,1.9876,1.9881,1.9913,1.996,1.9967,1.992,2.001,2.0028,2.013,2.0186,2.0088,2.0096,2.0402,2.0408,2.0413,2.0467,0,0,0,0,0,0,1.9635,1.9662,1.9705,1.9765,1.9791,1.9933,1.9879,1.9885,1.9927,1.9923,1.9987,1.9994,2.0008,2.0118,2.0138,2.0196,2.0102,2.0397,2.0405,2.0412,2.046,2.0474,2.0485,0,0,0,0,0,1.9626,1.9714,1.9707,1.9729,1.9845,1.9937,1.9952,1.9966,1.9931,1.9976,2.0007,1.9992,2.0176,2.0129,2.0151,2.0212,2.0394,2.0403,2.0411,2.0455,2.0471,2.0485,0,0,0,0,0,0,1.9659,1.9722,1.9714,1.9824,1.9875,1.9933,1.9989,1.9982,2.0044,2.0037,2.0053,2.0067,2.0172,2.0202,2.0147,2.033,2.0281,2.0294,2.0306,2.0322,2.0335,2.0326,2.0109,0,0,0,0,0,1.9679,1.9747,1.9799,1.9891,1.9917,1.9949,1.9989,1.9996,2.0049,2.0071,2.0109,2.0163,2.0233,2.0279,2.0346,2.0464,2.048,2.0518,2.053,2.054,2.0552,2.0622,2.064,2.0443,2.0443,2.0443,0,0,1.9721,1.9764,1.9806,1.9899,1.9939,2.0011,1.9967,2.0044,2.0099,2.0083,2.0183,2.0213,2.0274,2.0386,2.0437,2.0414,2.061,2.0551,2.0559,2.0565,2.0632,2.0651,2.0667,2.0449,2.0448,2.0447,0,0,1.9836,1.9873,1.9956,1.9998,2.006,2.0081,2.0102,2.0161,2.0181,2.0281,2.0272,2.0338,2.0457,2.0503,2.0541,2.0677,2.0668,2.0699,2.0764,2.0832,2.0847,2.0861,2.0913,2.0932,2.071,2.071,2.071,0,1.9881,1.9988,2.0,2.008,2.0122,2.0112,2.0198,2.0238,2.0319,2.035,2.0322,2.0475,2.0515,2.064,2.0674,2.0704,2.073,2.0692,2.0844,2.0858,2.0871,2.0921,2.094,2.0714,2.0714,2.0713,2.0713,0,2.0042,2.0117,2.0176,2.0256,2.0305,2.0387,2.0414,2.0463,2.0466,2.0491,2.0596,2.0644,2.0723,2.0752,2.0755,2.0879,2.0864,2.084,2.0791,2.0893,2.0941,2.096,2.0719,2.0718,2.0717,2.0716,0,0,2.0179,2.0266,2.0288,2.0326,2.0396,2.0455,2.0538,2.0615,2.0658,2.0715,2.0788,2.0891,2.0871,2.0915,2.0924,2.0983,2.1093,2.0953,2.0954,2.098,2.1237,2.1256,2.1277,2.1086,2.1089,2.1092,2.1233,0,2.0302,2.0448,2.0464,2.0596,2.0667,2.066,2.0733,2.0785,2.0812,2.0878,2.0907,2.0982,2.0947,2.0975,2.1033,2.1067,2.1145,2.1056,2.1157,2.116,2.1144,2.1302,2.1321,2.1451,2.1251,2.1254,2.1256,0,2.0465,2.0528,2.0667,2.073,2.0761,2.0826,2.0901,2.0963,2.1023,2.1038,2.109,2.1092,2.1181,2.1128,2.1253,2.1193,2.1235,2.1258,2.1264,2.1275,2.1216,2.1321,2.1492,2.1513,2.1285,2.1282,2.128,0,2.0556,2.0675,2.0775,2.0807,2.0882,2.0929,2.0963,2.102,2.1067,2.1132,2.1163,2.1238,2.1279,2.1338,2.1362,2.132,2.1487,2.1435,2.1505,2.1505,2.1542,2.154,2.1726,2.1564,2.1564,2.1564,2.1563,0,2.0693,2.0779,2.0817,2.0879,2.0977,2.0995,2.1092,2.1123,2.1175,2.1245,2.1242,2.1308,2.1334,2.1405,2.1424,2.1527,2.1545,2.1562,2.1566,2.1564,2.1562,2.1593,2.1586,2.1569,2.1568,2.1567,2.1566,0,2.0811,2.0839,2.0948,2.1011,2.103,2.1099,2.1155,2.1216,2.1242,2.1331,2.1353,2.1395,2.1479,2.1508,2.1609,2.1622,2.1743,2.1738,2.1723,2.1725,2.1794,2.1789,2.2009,2.2041,2.1856,2.1857,2.1859,0,2.0897,2.0964,2.1035,2.1082,2.1118,2.1192,2.1241,2.1262,2.1313,2.1389,2.1442,2.1525,2.1593,2.1728,2.1769,2.1848,2.1847,2.1919,2.1858,2.1855,2.1852,2.1849,2.1858,2.193,2.1932,2.1934,2.1935,0,2.105,2.1062,2.1131,2.1207,2.1265,2.1326,2.1384,2.1423,2.1454,2.1512,2.1598,2.165,2.1755,2.1839,2.1921,2.1957,2.1954,2.1954,2.1975,2.1974,2.1964,2.1974,2.1757,2.1949,2.1947,2.1946,2.1946,2.1945,2.1157,2.1218,2.1278,2.1357,2.1404,2.146,2.1522,2.1557,2.1629,2.1716,2.1725,2.1818,2.1881,2.199,2.2031,2.2106,2.2087,2.2116,2.2124,2.2132,2.2139,2.195,2.2121,2.212,2.212,2.212,2.212,0,2.1312,2.1352,2.1424,2.1507,2.1571,2.156,2.1626,2.168,2.1762,2.1821,2.1888,2.199,2.2072,2.2121,2.2204,2.2256,2.2256,2.2277,2.2275,2.2285,2.215,2.2125,2.2276,2.2276,2.2276,2.2276,2.2276,2.2276,2.1401,2.1504,2.1524,2.1652,2.1691,2.1783,2.1822,2.1875,2.1922,2.2036,2.2104,2.2135,2.2191,2.228,2.2356,2.2369,2.2401,2.2425,2.2436,2.2309,2.2293,2.2278,2.2255,2.2431,2.2431,2.2565,2.2566,2.2567]}]]